This is the latest recevied weather packets stored in our database for station/object OE5RPP. If no packets are shown the sender has not sent any weather packets the latest 10 day(s).
| Time | Temp. | Humidity | Pressure | Rain* | Wind** | Luminosity | Snow |
|---|---|---|---|---|---|---|---|
| 1787744883 | 25° C | 23% | 1021.9 hPa | 0 mm | - | - | - |
| 1787744283 | 25° C | 29% | 1021.9 hPa | 0 mm | - | - | - |
| 1787743683 | 25° C | 29% | 1021.9 hPa | 0 mm | - | - | - |
| 1787743082 | 24.44° C | 29% | 1021.9 hPa | 0 mm | - | - | - |
| 1787742482 | 24.44° C | 27% | 1021.9 hPa | 0 mm | - | - | - |
| 1787741882 | 25.56° C | 31% | 1021.9 hPa | 0 mm | - | - | - |
| 1787741281 | 24.44° C | 29% | 1021.9 hPa | 0 mm | - | - | - |
| 1787740681 | 23.89° C | 34% | 1021.9 hPa | 0 mm | - | - | - |
| 1787740060 | 23.89° C | 35% | 1021.9 hPa | 0 mm | - | - | - |
| 1787739459 | 23.33° C | 41% | 1021.9 hPa | 0 mm | - | - | - |
| 1787738860 | 23.33° C | 45% | 1021.9 hPa | 0 mm | - | - | - |
| 1787738260 | 22.22° C | 54% | 1021.9 hPa | 0 mm | - | - | - |
| 1787737659 | 21.67° C | 51% | 1021.9 hPa | 0 mm | - | - | - |
| 1787737059 | 21.67° C | 57% | 1021.9 hPa | 0 mm | - | - | - |
| 1787736459 | 21.67° C | 62% | 1021.9 hPa | 0 mm | - | - | - |
| 1787735860 | 21.67° C | 73% | 1021.9 hPa | 0 mm | - | - | - |
| 1787735259 | 20.56° C | 75% | 1021.9 hPa | 0 mm | - | - | - |
| 1787734659 | 20.56° C | 78% | 1021.9 hPa | 0 mm | - | - | - |
| 1787734060 | 19.44° C | 78% | 1021.9 hPa | 0 mm | - | - | - |
| 1787733460 | 18.89° C | 80% | 1021.9 hPa | 0 mm | - | - | - |
| 1787732860 | 18.89° C | 80% | 1021.9 hPa | 0 mm | - | - | - |
| 1787732259 | 18.89° C | 81% | 1021.9 hPa | 0 mm | - | - | - |
| 1787731660 | 18.89° C | 82% | 1021.9 hPa | 0 mm | - | - | - |
| 1787731060 | 18.33° C | 82% | 1021.9 hPa | 0 mm | - | - | - |
| 1787730459 | 18.33° C | 83% | 1021.9 hPa | 0 mm | - | - | - |
* Rain latest hour (hover to see other rain measurements)
** Current wind speed in m/s (hover to see current wind gust speed)